timestamp,wind_dir_avg,wind_spd_avg,wind_spd_max_dir,wind_spd_gust,battery_voltage,lat,long
2022-09-12 00:04:01+00:00,30.0,13.03,35.0,15.53,12.49,47.59359,-54.27349
2022-09-12 00:14:01+00:00,28.0,13.96,22.0,16.6,12.41,47.59359,-54.27349
2022-09-12 00:24:01+00:00,29.0,13.51,33.0,15.91,12.41,47.59359,-54.27349
2022-09-12 00:34:01+00:00,32.0,13.27,33.0,16.19,12.41,47.59359,-54.27349
2022-09-12 00:44:01+00:00,36.0,13.76,37.0,14.78,12.41,47.59359,-54.27349
2022-09-12 00:54:01+00:00,35.0,14.63,37.0,16.01,12.41,47.59359,-54.27349
2022-09-12 01:04:01+00:00,35.0,13.28,38.0,14.98,12.41,47.59359,-54.27349
2022-09-12 01:14:01+00:00,37.0,13.03,33.0,14.49,12.41,47.59359,-54.27349
2022-09-12 01:24:01+00:00,36.0,13.97,29.0,15.57,12.41,47.59359,-54.27349
2022-09-12 01:34:01+00:00,37.0,13.49,34.0,15.32,12.41,47.59359,-54.27349
2022-09-12 01:44:01+00:00,32.0,13.63,30.0,15.57,12.41,47.59359,-54.27349
2022-09-12 01:54:01+00:00,35.0,12.65,32.0,14.03,12.41,47.59359,-54.27349
2022-09-12 02:04:01+00:00,28.0,14.63,31.0,17.17,12.41,47.59359,-54.27349
2022-09-12 02:14:01+00:00,22.0,12.64,19.0,14.56,12.41,47.59359,-54.27349
2022-09-12 02:24:01+00:00,21.0,12.09,36.0,14.28,12.41,47.59359,-54.27349
2022-09-12 02:34:01+00:00,34.0,11.56,41.0,13.53,12.41,47.59359,-54.27349
2022-09-12 02:44:01+00:00,28.0,11.33,36.0,13.81,12.41,47.59359,-54.27349
2022-09-12 02:54:01+00:00,34.0,12.03,37.0,14.71,12.41,47.59359,-54.27349
2022-09-12 03:04:01+00:00,21.0,12.28,34.0,14.84,12.41,47.59359,-54.27349
2022-09-12 03:14:01+00:00,24.0,11.45,32.0,13.07,12.41,47.59359,-54.27349
2022-09-12 03:24:01+00:00,21.0,11.96,32.0,14.89,12.41,47.59359,-54.27349
2022-09-12 03:34:01+00:00,24.0,11.8,34.0,14.22,12.41,47.59359,-54.27349
2022-09-12 03:44:01+00:00,23.0,11.65,35.0,13.95,12.41,47.59359,-54.27349
2022-09-12 03:54:01+00:00,30.0,11.19,38.0,12.49,12.41,47.59359,-54.27349
2022-09-12 04:04:01+00:00,29.0,10.87,40.0,13.52,12.41,47.59359,-54.27349
2022-09-12 04:14:00+00:00,29.0,10.44,36.0,12.02,12.41,47.59359,-54.27349
2022-09-12 04:24:00+00:00,27.0,10.48,32.0,12.39,12.41,47.59359,-54.27349
2022-09-12 04:34:00+00:00,24.0,10.94,36.0,12.51,12.41,47.59359,-54.27349
2022-09-12 04:44:00+00:00,24.0,11.21,29.0,13.67,12.41,47.59359,-54.27349
2022-09-12 04:54:00+00:00,27.0,11.62,37.0,13.67,12.41,47.59359,-54.27349
2022-09-12 05:04:00+00:00,30.0,12.37,31.0,15.55,12.41,47.59359,-54.27349
2022-09-12 05:14:00+00:00,18.0,11.23,14.0,16.28,12.41,47.59359,-54.27349
2022-09-12 05:24:00+00:00,22.0,11.58,40.0,14.06,12.41,47.59359,-54.27349
2022-09-12 05:34:00+00:00,19.0,12.13,39.0,13.78,12.41,47.59359,-54.27349
2022-09-12 05:44:00+00:00,22.0,10.69,30.0,14.19,12.41,47.59359,-54.27349
2022-09-12 05:54:00+00:00,19.0,10.92,36.0,13.07,12.41,47.59359,-54.27349
2022-09-12 06:04:00+00:00,18.0,11.91,30.0,13.31,12.41,47.59359,-54.27349
2022-09-12 06:14:00+00:00,19.0,11.81,22.0,13.69,12.41,47.59359,-54.27349
2022-09-12 06:24:00+00:00,19.0,12.65,31.0,16.66,12.41,47.59359,-54.27349
2022-09-12 06:34:00+00:00,20.0,11.93,35.0,14.19,12.41,47.59359,-54.27349
2022-09-12 06:44:00+00:00,20.0,11.39,20.0,13.75,12.41,47.59359,-54.27349
2022-09-12 06:54:00+00:00,25.0,11.75,37.0,13.34,12.41,47.59359,-54.27349
2022-09-12 07:04:00+00:00,21.0,10.7,37.0,12.73,12.41,47.59359,-54.27349
2022-09-12 07:14:00+00:00,19.0,10.09,27.0,11.88,12.41,47.59359,-54.27349
2022-09-12 07:24:00+00:00,25.0,11.63,39.0,14.52,12.41,47.59359,-54.27349
2022-09-12 07:34:00+00:00,22.0,10.11,26.0,11.29,12.41,47.59359,-54.27349
2022-09-12 07:44:00+00:00,21.0,9.97,22.0,10.91,12.41,47.59359,-54.27349
2022-09-12 07:54:00+00:00,23.0,10.86,31.0,13.28,12.41,47.59359,-54.27349
2022-09-12 08:04:00+00:00,24.0,11.91,38.0,15.44,12.41,47.59359,-54.27349
2022-09-12 08:14:00+00:00,18.0,11.72,18.0,13.25,12.33,47.59359,-54.27349
2022-09-12 08:24:00+00:00,19.0,10.78,17.0,12.23,12.33,47.59359,-54.27349
2022-09-12 08:34:00+00:00,20.0,10.05,13.0,13.37,12.33,47.59359,-54.27349
2022-09-12 08:44:00+00:00,20.0,10.1,17.0,11.34,12.33,47.59359,-54.27349
2022-09-12 08:54:00+00:00,19.0,10.46,19.0,11.9,12.33,47.59359,-54.27349
2022-09-12 09:04:00+00:00,17.0,9.93,17.0,11.48,12.33,47.59359,-54.27349
2022-09-12 09:14:00+00:00,22.0,10.62,19.0,14.53,12.33,47.59359,-54.27349
2022-09-12 09:24:00+00:00,17.0,9.47,17.0,10.51,12.33,47.59359,-54.27349
2022-09-12 09:34:00+00:00,18.0,9.29,19.0,10.52,12.33,47.59359,-54.27349
2022-09-12 09:44:00+00:00,20.0,9.82,21.0,11.06,12.33,47.59359,-54.27349
2022-09-12 09:54:00+00:00,21.0,9.12,18.0,9.92,12.33,47.59359,-54.27349
2022-09-12 10:04:00+00:00,21.0,9.3,21.0,10.01,12.33,47.59359,-54.27349
2022-09-12 10:14:01+00:00,19.0,8.94,20.0,10.48,12.25,47.59359,-54.27349
2022-09-12 10:24:01+00:00,16.0,9.29,19.0,11.25,12.25,47.59359,-54.27349
2022-09-12 10:34:01+00:00,16.0,8.68,17.0,9.97,12.25,47.59359,-54.27349
2022-09-12 10:44:01+00:00,16.0,8.33,14.0,9.2,12.25,47.59359,-54.27349
2022-09-12 10:54:01+00:00,16.0,9.25,12.0,10.33,12.25,47.59359,-54.27349
2022-09-12 11:04:01+00:00,24.0,9.02,28.0,10.08,12.25,47.59359,-54.27349
2022-09-12 11:14:00+00:00,22.0,9.11,20.0,10.01,12.49,47.59359,-54.27349
2022-09-12 11:24:00+00:00,23.0,8.47,24.0,9.38,12.49,47.59359,-54.27349
2022-09-12 11:34:00+00:00,24.0,9.14,23.0,10.12,12.49,47.59359,-54.27349
2022-09-12 11:44:00+00:00,24.0,9.1,21.0,10.38,12.49,47.59359,-54.27349
2022-09-12 11:54:00+00:00,25.0,9.81,38.0,11.68,12.49,47.59359,-54.27349
2022-09-12 12:04:00+00:00,20.0,9.52,19.0,10.55,12.49,47.59359,-54.27349
2022-09-12 12:14:01+00:00,27.0,9.75,33.0,11.39,12.81,47.59359,-54.27349
2022-09-12 12:24:01+00:00,31.0,6.76,32.0,7.52,12.81,47.59359,-54.27349
2022-09-12 12:34:01+00:00,28.0,6.39,23.0,7.02,12.81,47.59359,-54.27349
2022-09-12 12:44:01+00:00,20.0,7.7,19.0,8.61,12.81,47.59359,-54.27349
2022-09-12 12:54:01+00:00,20.0,7.42,20.0,7.8,12.81,47.59359,-54.27349
2022-09-12 13:04:01+00:00,25.0,8.44,24.0,9.37,12.81,47.59359,-54.27349
2022-09-12 13:14:00+00:00,23.0,8.13,23.0,8.8,13.68,47.59359,-54.27349
2022-09-12 13:24:00+00:00,31.0,8.42,40.0,11.04,13.68,47.59359,-54.27349
2022-09-12 13:34:00+00:00,26.0,7.39,23.0,8.09,13.68,47.59359,-54.27349
2022-09-12 13:44:00+00:00,16.0,8.27,15.0,9.02,13.68,47.59359,-54.27349
2022-09-12 13:54:00+00:00,13.0,7.88,21.0,9.17,13.68,47.59359,-54.27349
2022-09-12 14:04:00+00:00,32.0,6.28,28.0,7.7,13.68,47.59359,-54.27349
2022-09-12 14:14:00+00:00,49.0,7.71,57.0,10.64,13.6,47.59359,-54.27349
2022-09-12 14:24:00+00:00,39.0,9.05,49.0,11.91,13.6,47.59359,-54.27349
2022-09-12 14:34:00+00:00,44.0,7.91,55.0,10.18,13.6,47.59359,-54.27349
2022-09-12 14:44:00+00:00,34.0,6.41,25.0,7.22,13.6,47.59359,-54.27349
2022-09-12 14:54:00+00:00,32.0,6.57,32.0,7.26,13.6,47.59359,-54.27349
2022-09-12 15:04:00+00:00,23.0,6.31,27.0,7.15,13.6,47.59359,-54.27349
2022-09-12 15:14:00+00:00,27.0,6.25,28.0,7.18,13.76,47.59359,-54.27349
2022-09-12 15:24:00+00:00,40.0,6.32,41.0,7.23,13.76,47.59359,-54.27349
2022-09-12 15:34:00+00:00,39.0,5.56,34.0,6.21,13.76,47.59359,-54.27349
2022-09-12 15:44:00+00:00,42.0,5.35,35.0,6.53,13.76,47.59359,-54.27349
2022-09-12 15:54:00+00:00,36.0,6.06,36.0,7.14,13.76,47.59359,-54.27349
2022-09-12 16:04:00+00:00,44.0,7.13,53.0,8.99,13.76,47.59359,-54.27349
2022-09-12 16:14:00+00:00,52.0,6.86,59.0,9.56,13.76,47.59359,-54.27349
2022-09-12 16:24:00+00:00,45.0,5.96,50.0,8.22,13.76,47.59359,-54.27349
2022-09-12 16:34:00+00:00,36.0,6.31,36.0,6.55,13.76,47.59359,-54.27349
2022-09-12 16:44:00+00:00,33.0,5.33,30.0,6.0,13.76,47.59359,-54.27349
2022-09-12 16:54:00+00:00,30.0,6.46,28.0,7.07,13.76,47.59359,-54.27349
2022-09-12 17:04:00+00:00,33.0,5.33,31.0,6.51,13.76,47.59359,-54.27349
2022-09-12 17:14:01+00:00,27.0,10.56,27.0,11.44,14.32,47.59359,-54.27349
2022-09-12 17:24:01+00:00,27.0,7.88,25.0,8.32,14.32,47.59359,-54.27349
2022-09-12 17:34:01+00:00,40.0,7.63,55.0,10.9,14.32,47.59359,-54.27349
2022-09-12 17:44:01+00:00,34.0,7.91,33.0,9.04,14.32,47.59359,-54.27349
2022-09-12 17:54:01+00:00,18.0,8.07,23.0,10.13,14.32,47.59359,-54.27349
2022-09-12 18:04:01+00:00,21.0,8.53,24.0,9.3,14.32,47.59359,-54.27349
2022-09-12 18:14:01+00:00,28.0,5.85,20.0,6.65,13.76,47.59359,-54.27349
2022-09-12 18:24:01+00:00,24.0,7.97,27.0,9.3,13.76,47.59359,-54.27349
2022-09-12 18:34:01+00:00,21.0,8.9,23.0,9.53,13.76,47.59359,-54.27349
2022-09-12 18:44:01+00:00,18.0,7.44,19.0,8.62,13.76,47.59359,-54.27349
2022-09-12 18:54:01+00:00,41.0,5.15,38.0,6.31,13.76,47.59359,-54.27349
2022-09-12 19:04:01+00:00,23.0,7.11,16.0,8.47,13.76,47.59359,-54.27349
2022-09-12 19:14:01+00:00,24.0,10.63,30.0,11.83,13.84,47.59359,-54.27349
2022-09-12 19:24:01+00:00,14.0,9.29,15.0,10.33,13.84,47.59359,-54.27349
2022-09-12 19:34:01+00:00,20.0,7.9,26.0,9.47,13.84,47.59359,-54.27349
2022-09-12 19:44:01+00:00,26.0,6.94,29.0,7.44,13.84,47.59359,-54.27349
2022-09-12 19:54:01+00:00,24.0,7.08,27.0,8.95,13.84,47.59359,-54.27349
2022-09-12 20:04:01+00:00,34.0,8.44,33.0,10.41,13.84,47.59359,-54.27349
2022-09-12 20:14:01+00:00,33.0,8.0,32.0,9.22,13.76,47.59359,-54.27349
2022-09-12 20:24:01+00:00,28.0,8.01,29.0,9.9,13.76,47.59359,-54.27349
2022-09-12 20:34:01+00:00,19.0,8.53,18.0,9.67,13.76,47.59359,-54.27349
2022-09-12 20:44:01+00:00,22.0,6.1,20.0,6.82,13.76,47.59359,-54.27349
2022-09-12 20:54:01+00:00,26.0,6.27,27.0,7.05,13.76,47.59359,-54.27349
2022-09-12 21:04:01+00:00,21.0,8.53,21.0,9.69,13.76,47.59359,-54.27349
2022-09-12 21:14:01+00:00,19.0,8.39,27.0,9.44,13.44,47.59359,-54.27349
2022-09-12 21:24:01+00:00,15.0,8.28,27.0,9.49,13.44,47.59359,-54.27349
2022-09-12 21:34:01+00:00,19.0,6.77,16.0,7.66,13.44,47.59359,-54.27349
2022-09-12 21:44:01+00:00,24.0,6.79,20.0,7.36,13.44,47.59359,-54.27349
2022-09-12 21:54:01+00:00,357.0,3.99,3.0,4.86,13.44,47.59359,-54.27349
2022-09-12 22:04:01+00:00,14.0,4.89,19.0,6.19,13.44,47.59359,-54.27349
2022-09-12 22:14:00+00:00,42.0,3.17,51.0,3.8,12.89,47.59359,-54.27349
2022-09-12 22:24:00+00:00,32.0,3.65,35.0,3.95,12.89,47.59359,-54.27349
2022-09-12 22:34:00+00:00,33.0,4.32,34.0,5.13,12.89,47.59359,-54.27349
2022-09-12 22:44:00+00:00,33.0,5.7,33.0,6.48,12.89,47.59359,-54.27349
2022-09-12 22:54:00+00:00,33.0,6.42,34.0,6.96,12.89,47.59359,-54.27349
2022-09-12 23:04:00+00:00,46.0,4.59,47.0,5.17,12.89,47.59359,-54.27349
2022-09-12 23:14:01+00:00,27.0,3.61,22.0,4.88,12.49,47.59359,-54.27349
2022-09-12 23:24:01+00:00,19.0,3.36,14.0,4.03,12.49,47.59359,-54.27349
2022-09-12 23:34:01+00:00,19.0,2.42,13.0,3.46,12.49,47.59359,-54.27349
2022-09-12 23:44:01+00:00,45.0,1.98,46.0,3.1,12.49,47.59359,-54.27349
2022-09-12 23:54:01+00:00,88.0,1.88,95.0,3.58,12.49,47.59359,-54.27349
